Time,TemperatureF,DewpointF,PressureIn,WindDirection,WindDirectionDegrees,WindSpeedMPH,WindSpeedGustMPH,Humidity,HourlyPrecipIn,Conditions,Clouds,dailyrainin,SoftwareType,DateUTC
2013-09-22 00:02:00,-999.0,-99.9,29.68,WNW,298,3.0,5.0,-999,-99.99,,,-99.99,,2013-09-22 04:02:00,
2013-09-22 00:14:00,54.0,54.0,29.68,WNW,298,3.0,5.0,99,0.00,,,0.92,,2013-09-22 04:14:00,
2013-09-22 00:23:00,54.0,53.0,29.69,NW,308,3.0,4.0,98,0.00,,,0.92,,2013-09-22 04:23:00,
2013-09-22 00:44:00,54.0,53.0,29.69,NW,321,2.0,4.0,98,0.00,,,0.92,,2013-09-22 04:44:00,
2013-09-22 00:54:00,54.0,53.0,29.69,NW,305,2.0,5.0,98,0.00,,,0.92,,2013-09-22 04:54:00,
2013-09-22 01:13:00,54.0,53.0,29.69,NW,315,2.0,5.0,98,0.00,,,0.92,,2013-09-22 05:13:00,
2013-09-22 01:23:00,54.0,53.0,29.69,NW,319,1.0,3.0,98,0.00,,,0.92,,2013-09-22 05:23:00,
2013-09-22 01:43:00,54.0,53.0,29.70,NW,321,3.0,7.0,98,0.00,,,0.92,,2013-09-22 05:43:00,
2013-09-22 01:53:00,53.0,52.0,29.70,NW,326,5.0,17.0,97,0.00,,,0.92,,2013-09-22 05:53:00,
2013-09-22 02:12:00,53.0,52.0,29.70,NNW,336,4.0,12.0,95,0.00,,,0.92,,2013-09-22 06:12:00,
2013-09-22 02:22:00,52.0,50.0,29.71,NW,314,4.0,9.0,94,0.00,,,0.92,,2013-09-22 06:22:00,
2013-09-22 02:52:00,51.0,49.0,29.71,NNW,336,3.0,8.0,94,0.00,,,0.92,,2013-09-22 06:52:00,
2013-09-22 03:12:00,51.0,49.0,29.72,NNW,338,3.0,7.0,93,0.00,,,0.92,,2013-09-22 07:12:00,
2013-09-22 03:22:00,51.0,50.0,29.72,NNW,335,2.0,4.0,96,0.00,,,0.92,,2013-09-22 07:22:00,
2013-09-22 03:42:00,50.0,49.0,29.72,NW,315,4.0,7.0,97,0.00,,,0.92,,2013-09-22 07:42:00,
2013-09-22 03:52:00,50.0,49.0,29.72,NW,326,3.0,6.0,97,0.00,,,0.92,,2013-09-22 07:52:00,
2013-09-22 04:12:00,49.0,48.0,29.72,NW,326,3.0,7.0,98,0.00,,,0.92,,2013-09-22 08:12:00,
2013-09-22 04:22:00,49.0,48.0,29.73,NW,320,4.0,10.0,98,0.00,,,0.92,,2013-09-22 08:22:00,
2013-09-22 04:52:00,49.0,48.0,29.73,NNW,346,0.0,5.0,97,0.00,,,0.92,,2013-09-22 08:52:00,
2013-09-22 05:11:00,48.0,47.0,29.74,NNW,335,1.0,5.0,98,0.00,,,0.92,,2013-09-22 09:11:00,
2013-09-22 05:22:00,48.0,47.0,29.75,NW,322,2.0,4.0,98,0.00,,,0.92,,2013-09-22 09:22:00,
2013-09-22 05:43:00,48.0,47.0,29.75,NNW,343,3.0,5.0,98,0.00,,,0.92,,2013-09-22 09:43:00,
2013-09-22 05:54:00,48.0,47.0,29.76,NNW,341,1.0,5.0,97,0.00,,,0.92,,2013-09-22 09:54:00,
2013-09-22 06:12:00,48.0,47.0,29.76,NW,311,1.0,4.0,97,0.00,,,0.92,,2013-09-22 10:12:00,
2013-09-22 06:23:00,48.0,47.0,29.76,NW,311,1.0,4.0,97,0.00,,,0.92,,2013-09-22 10:23:00,
2013-09-22 06:44:00,48.0,47.0,29.77,NW,315,1.0,4.0,96,0.00,,,0.92,,2013-09-22 10:44:00,
2013-09-22 06:53:00,48.0,47.0,29.77,NW,322,3.0,4.0,95,0.00,,,0.92,,2013-09-22 10:53:00,
2013-09-22 07:12:00,48.0,46.0,29.78,NW,314,4.0,8.0,94,0.00,,,0.92,,2013-09-22 11:12:00,
2013-09-22 07:22:00,49.0,47.0,29.78,NNW,327,4.0,7.0,93,0.00,,,0.92,,2013-09-22 11:22:00,
2013-09-22 07:42:00,48.0,46.0,29.78,NW,307,1.0,3.0,94,0.00,,,0.88,,2013-09-22 11:42:00,
2013-09-22 07:52:00,48.0,47.0,29.79,NW,321,3.0,5.0,95,0.00,,,0.88,,2013-09-22 11:52:00,
2013-09-22 08:12:00,48.0,47.0,29.79,NW,314,2.0,7.0,96,0.00,,,0.88,,2013-09-22 12:12:00,
2013-09-22 08:22:00,47.0,46.0,29.79,NW,325,3.0,6.0,97,0.00,,,0.88,,2013-09-22 12:22:00,
2013-09-22 08:42:00,48.0,47.0,29.80,NW,322,0.0,3.0,96,0.00,,,0.86,,2013-09-22 12:42:00,
2013-09-22 08:52:00,48.0,46.0,29.80,NW,309,1.0,4.0,93,0.00,,,0.86,,2013-09-22 12:52:00,
2013-09-22 09:12:00,48.0,45.0,29.80,NW,323,2.0,6.0,91,0.00,,,0.86,,2013-09-22 13:12:00,
2013-09-22 09:22:00,49.0,47.0,29.81,NNW,333,2.0,6.0,92,0.00,,,0.86,,2013-09-22 13:22:00,
2013-09-22 09:42:00,49.0,46.0,29.82,NW,320,3.0,11.0,90,0.00,,,0.86,,2013-09-22 13:42:00,
2013-09-22 09:52:00,49.0,46.0,29.82,NW,312,3.0,5.0,91,0.00,,,0.86,,2013-09-22 13:52:00,
2013-09-22 10:11:00,50.0,47.0,29.82,NNW,347,4.0,8.0,88,0.00,,,0.86,,2013-09-22 14:11:00,
2013-09-22 10:22:00,51.0,47.0,29.83,NNW,341,3.0,12.0,85,0.00,,,0.86,,2013-09-22 14:22:00,
2013-09-22 10:42:00,51.0,47.0,29.83,NW,321,3.0,6.0,86,0.00,,,0.86,,2013-09-22 14:42:00,
2013-09-22 10:52:00,51.0,44.0,29.83,NW,315,9.0,13.0,78,0.00,,,0.86,,2013-09-22 14:52:00,
2013-09-22 11:12:00,51.0,45.0,29.84,NW,308,5.0,12.0,80,0.00,,,0.86,,2013-09-22 15:12:00,
2013-09-22 11:23:00,52.0,46.0,29.84,NNW,336,4.0,6.0,80,0.00,,,0.86,,2013-09-22 15:23:00,
2013-09-22 11:44:00,52.0,45.0,29.85,NNW,331,5.0,15.0,78,0.00,,,0.86,,2013-09-22 15:44:00,
2013-09-22 11:55:00,52.0,44.0,29.85,NNW,340,5.0,8.0,74,0.00,,,0.86,,2013-09-22 15:55:00,
2013-09-22 12:13:00,53.0,45.0,29.84,NW,316,3.0,8.0,74,0.00,,,0.86,,2013-09-22 16:13:00,
2013-09-22 12:24:00,53.0,43.0,29.84,NNW,344,7.0,13.0,70,0.00,,,0.86,,2013-09-22 16:24:00,
2013-09-22 12:43:00,53.0,45.0,29.85,NW,314,5.0,12.0,74,0.00,,,0.86,,2013-09-22 16:43:00,
2013-09-22 12:54:00,53.0,43.0,29.85,NW,319,6.0,9.0,69,0.00,,,0.86,,2013-09-22 16:54:00,
2013-09-22 13:12:00,54.0,44.0,29.85,NW,317,5.0,15.0,68,0.00,,,0.86,,2013-09-22 17:12:00,
2013-09-22 13:23:00,54.0,46.0,29.85,NNW,341,3.0,10.0,74,0.00,,,0.86,,2013-09-22 17:23:00,
2013-09-22 13:43:00,54.0,43.0,29.85,NW,323,6.0,10.0,65,0.00,,,0.86,,2013-09-22 17:43:00,
2013-09-22 13:53:00,54.0,43.0,29.85,NNW,340,7.0,18.0,66,0.00,,,0.86,,2013-09-22 17:53:00,
2013-09-22 14:13:00,54.0,44.0,29.85,NW,320,5.0,16.0,69,0.00,,,0.86,,2013-09-22 18:13:00,
2013-09-22 14:22:00,54.0,43.0,29.85,WNW,292,3.0,8.0,66,0.00,,,0.86,,2013-09-22 18:22:00,
2013-09-22 14:42:00,55.0,43.0,29.85,WNW,302,5.0,10.0,64,0.00,,,0.85,,2013-09-22 18:42:00,
2013-09-22 14:52:00,54.0,43.0,29.85,North,11,9.0,15.0,66,0.00,,,0.85,,2013-09-22 18:52:00,
2013-09-22 15:11:00,55.0,43.0,29.85,NW,304,3.0,11.0,64,0.00,,,0.85,,2013-09-22 19:11:00,
2013-09-22 15:22:00,55.0,43.0,29.85,NW,304,6.0,10.0,63,0.00,,,0.85,,2013-09-22 19:22:00,
2013-09-22 15:53:00,55.0,43.0,29.85,NNW,340,8.0,15.0,64,0.00,,,0.72,,2013-09-22 19:53:00,
2013-09-22 16:12:00,54.0,43.0,29.85,NW,323,10.0,16.0,65,0.00,,,0.72,,2013-09-22 20:12:00,
2013-09-22 16:22:00,55.0,43.0,29.85,NE,37,3.0,12.0,65,0.00,,,0.72,,2013-09-22 20:22:00,
2013-09-22 16:42:00,54.0,43.0,29.85,NW,321,9.0,13.0,66,0.00,,,0.63,,2013-09-22 20:42:00,
2013-09-22 16:52:00,54.0,43.0,29.86,North,360,6.0,14.0,67,0.00,,,0.63,,2013-09-22 20:52:00,
2013-09-22 17:12:00,54.0,43.0,29.86,NNW,347,6.0,15.0,67,0.00,,,0.63,,2013-09-22 21:12:00,
2013-09-22 17:23:00,53.0,43.0,29.87,North,351,3.0,13.0,68,0.00,,,0.63,,2013-09-22 21:23:00,
2013-09-22 17:45:00,53.0,43.0,29.87,NW,309,5.0,11.0,69,0.00,,,0.16,,2013-09-22 21:45:00,
2013-09-22 17:54:00,53.0,43.0,29.88,North,10,3.0,12.0,69,0.00,,,0.16,,2013-09-22 21:54:00,
2013-09-22 18:14:00,53.0,43.0,29.88,NW,310,5.0,11.0,69,0.00,,,0.16,,2013-09-22 22:14:00,
2013-09-22 18:24:00,52.0,43.0,29.88,NNW,348,5.0,11.0,71,0.00,,,0.16,,2013-09-22 22:24:00,
2013-09-22 18:54:00,52.0,44.0,29.89,NW,326,2.0,6.0,75,0.00,,,0.05,,2013-09-22 22:54:00,
2013-09-22 19:12:00,52.0,44.0,29.89,NNW,339,3.0,8.0,74,0.00,,,0.05,,2013-09-22 23:12:00,
2013-09-22 19:22:00,51.0,43.0,29.90,NW,305,2.0,7.0,75,0.00,,,0.05,,2013-09-22 23:22:00,
2013-09-22 19:43:00,51.0,44.0,29.91,NNW,336,3.0,7.0,76,0.00,,,0.03,,2013-09-22 23:43:00,
2013-09-22 19:52:00,51.0,44.0,29.91,NW,314,3.0,8.0,76,0.00,,,0.03,,2013-09-22 23:52:00,
2013-09-22 20:12:00,50.0,43.0,29.92,NW,326,3.0,6.0,77,0.00,,,0.03,,2013-09-23 00:12:00,
2013-09-22 20:23:00,50.0,42.0,29.92,NW,304,4.0,8.0,73,0.00,,,0.03,,2013-09-23 00:23:00,
2013-09-22 20:42:00,50.0,42.0,29.93,North,4,4.0,14.0,73,0.00,,,0.00,,2013-09-23 00:42:00,
2013-09-22 20:53:00,49.0,41.0,29.93,NNW,335,3.0,6.0,74,0.00,,,0.00,,2013-09-23 00:53:00,
2013-09-22 21:12:00,49.0,41.0,29.94,NNW,345,3.0,10.0,73,0.00,,,0.00,,2013-09-23 01:12:00,
2013-09-22 21:22:00,49.0,40.0,29.94,WNW,293,5.0,13.0,72,0.00,,,0.00,,2013-09-23 01:22:00,
2013-09-22 21:43:00,49.0,40.0,29.95,NNW,329,6.0,16.0,71,0.00,,,0.00,,2013-09-23 01:43:00,
2013-09-22 21:52:00,49.0,40.0,29.95,NNW,340,4.0,11.0,72,0.00,,,0.00,,2013-09-23 01:52:00,
2013-09-22 22:11:00,49.0,41.0,29.95,NW,322,3.0,6.0,74,0.00,,,0.00,,2013-09-23 02:11:00,
2013-09-22 22:22:00,49.0,41.0,29.96,NW,307,3.0,9.0,74,0.00,,,0.00,,2013-09-23 02:22:00,
2013-09-22 22:42:00,48.0,41.0,29.96,North,356,1.0,3.0,77,0.00,,,0.00,,2013-09-23 02:42:00,
2013-09-22 22:52:00,48.0,41.0,29.97,NW,324,2.0,3.0,78,0.00,,,0.00,,2013-09-23 02:52:00,
2013-09-22 23:12:00,48.0,42.0,29.97,NNW,340,2.0,5.0,79,0.00,,,0.00,,2013-09-23 03:12:00,
2013-09-22 23:23:00,48.0,43.0,29.97,North,352,2.0,5.0,82,0.00,,,0.00,,2013-09-23 03:23:00,
2013-09-22 23:44:00,47.0,42.0,29.97,North,351,2.0,5.0,82,0.00,,,0.00,,2013-09-23 03:44:00,
2013-09-22 23:54:00,47.0,42.0,29.97,NNW,330,3.0,8.0,84,0.00,,,0.00,,2013-09-23 03:54:00,